When you browse on this site, cookies collect data to enhance your experience and personalize the content and advertising you see.
Visit our Privacy Policy to learn more. By continuing to use the site, you agree to this use of cookies and data.
  • In Austria
  • List of Countries
  • For 7 days
  • Water Temperature
  • Weather Map
  • News
  • Weather Widgets
  • user-avatar
    Login

    Hourly Weather Etchmiadzin

    Today, 28 May, Thursday

    Time Temperature Precipitation Wind Pressure Humidity
    00:00 +21°C° 0 mm 1 mps 689 mmHg 46%
    01:00 +20°C° 0 mm 1 mps 689 mmHg 46%
    02:00 +20°C° 0 mm 1 mps 689 mmHg 47%
    03:00 +19°C° 0 mm 1 mps 689 mmHg 48%
    04:00 +20°C° 0 mm 1 mps 689 mmHg 49%
    05:00 +21°C° 0 mm 1 mps 689 mmHg 51%
    06:00 +22°C° 0 mm 1 mps 689 mmHg 53%
    07:00 +23°C° 0 mm 1 mps 689 mmHg 47%
    08:00 +25°C° 0 mm 1 mps 689 mmHg 42%
    09:00 +27°C° 0 mm 1 mps 689 mmHg 36%
    10:00 +29°C° 0 mm 1 mps 689 mmHg 33%
    11:00 +30°C° 0 mm 1 mps 689 mmHg 31%
    12:00 +31°C° 0 mm 1 mps 689 mmHg 28%
    13:00 +32°C° 0 mm 1 mps 689 mmHg 26%
    14:00 +32°C° 0 mm 2 mps 688 mmHg 24%
    15:00 +34°C° 0 mm 2 mps 688 mmHg 21%
    16:00 +32°C° 0.1 mm 1 mps 688 mmHg 25%
    17:00 +32°C° 0.1 mm 1 mps 688 mmHg 29%
    18:00 +31°C° 0.1 mm 1 mps 687 mmHg 33%
    19:00 +29°C° 0.2 mm 1 mps 687 mmHg 36%
    20:00 +26°C° 0.2 mm 2 mps 687 mmHg 38%
    21:00 +24°C° 0.2 mm 2 mps 687 mmHg 41%
    22:00 +23°C° 0 mm 2 mps 687 mmHg 43%
    23:00 +23°C° 0 mm 2 mps 686 mmHg 46%

    Tomorrow, 29 May, Friday

    Time Temperature Precipitation Wind Pressure Humidity
    00:00 +22°C° 0 mm 1 mps 686 mmHg 49%
    01:00 +21°C° 0.1 mm 1 mps 686 mmHg 50%
    02:00 +21°C° 0.1 mm 1 mps 686 mmHg 50%
    03:00 +20°C° 0.1 mm 1 mps 685 mmHg 51%
    04:00 +21°C° 0 mm 1 mps 685 mmHg 51%
    05:00 +22°C° 0 mm 1 mps 685 mmHg 52%
    06:00 +23°C° 0 mm 1 mps 685 mmHg 52%
    07:00 +25°C° 0 mm 1 mps 685 mmHg 45%
    08:00 +27°C° 0 mm 1 mps 685 mmHg 38%
    09:00 +29°C° 0 mm 1 mps 685 mmHg 32%
    10:00 +30°C° 0 mm 2 mps 685 mmHg 29%
    11:00 +33°C° 0 mm 3 mps 685 mmHg 27%
    12:00 +34°C° 0 mm 4 mps 684 mmHg 24%
    13:00 +30°C° 0.7 mm 6 mps 683 mmHg 35%
    14:00 +27°C° 0.7 mm 8 mps 682 mmHg 46%
    15:00 +23°C° 0.7 mm 9 mps 682 mmHg 57%
    16:00 +26°C° 0 mm 7 mps 682 mmHg 52%
    17:00 +27°C° 0 mm 4 mps 683 mmHg 48%
    18:00 +28°C° 0 mm 2 mps 683 mmHg 44%
    19:00 +26°C° 0 mm 2 mps 683 mmHg 44%
    20:00 +25°C° 0 mm 2 mps 684 mmHg 44%
    21:00 +23°C° 0 mm 2 mps 684 mmHg 43%
    22:00 +21°C° 0 mm 2 mps 683 mmHg 44%
    23:00 +21°C° 0 mm 2 mps 683 mmHg 44%

    Day after tomorrow, 30 May, Saturday

    Time Temperature Precipitation Wind Pressure Humidity
    00:00 +20°C° 0 mm 2 mps 683 mmHg 45%
    01:00 +20°C° 0 mm 2 mps 683 mmHg 44%
    02:00 +19°C° 0 mm 2 mps 683 mmHg 43%
    03:00 +19°C° 0 mm 2 mps 683 mmHg 43%
    04:00 +19°C° 0 mm 2 mps 683 mmHg 43%
    05:00 +19°C° 0 mm 2 mps 684 mmHg 44%
    06:00 +19°C° 0 mm 2 mps 684 mmHg 44%
    07:00 +21°C° 0 mm 2 mps 684 mmHg 37%
    08:00 +24°C° 0 mm 3 mps 685 mmHg 31%
    09:00 +26°C° 0 mm 3 mps 685 mmHg 24%
    10:00 +26°C° 0 mm 3 mps 685 mmHg 22%
    11:00 +27°C° 0 mm 2 mps 685 mmHg 20%
    12:00 +28°C° 0 mm 2 mps 685 mmHg 18%
    13:00 +29°C° 0 mm 2 mps 685 mmHg 18%
    14:00 +29°C° 0 mm 2 mps 685 mmHg 18%
    15:00 +30°C° 0 mm 2 mps 684 mmHg 17%
    16:00 +29°C° 0 mm 2 mps 685 mmHg 21%
    17:00 +29°C° 0 mm 1 mps 685 mmHg 24%
    18:00 +29°C° 0 mm 1 mps 685 mmHg 28%
    19:00 +26°C° 0 mm 2 mps 685 mmHg 29%
    20:00 +24°C° 0 mm 2 mps 685 mmHg 29%
    21:00 +21°C° 0 mm 3 mps 685 mmHg 30%
    22:00 +20°C° 0 mm 3 mps 685 mmHg 31%
    23:00 +19°C° 0 mm 2 mps 686 mmHg 33%

    31 May, Sunday

    Time Temperature Precipitation Wind Pressure Humidity
    00:00 +18°C° 0 mm 2 mps 686 mmHg 34%
    01:00 +18°C° 0 mm 2 mps 686 mmHg 36%
    02:00 +17°C° 0 mm 2 mps 686 mmHg 38%
    03:00 +17°C° 0 mm 3 mps 686 mmHg 39%
    04:00 +17°C° 0 mm 2 mps 686 mmHg 42%
    05:00 +17°C° 0 mm 2 mps 687 mmHg 44%
    06:00 +18°C° 0 mm 2 mps 687 mmHg 47%
    07:00 +20°C° 0 mm 2 mps 687 mmHg 42%
    08:00 +23°C° 0 mm 2 mps 687 mmHg 36%
    09:00 +25°C° 0 mm 2 mps 688 mmHg 31%
    10:00 +26°C° 0 mm 2 mps 688 mmHg 28%
    11:00 +27°C° 0 mm 2 mps 688 mmHg 25%
    12:00 +28°C° 0 mm 2 mps 687 mmHg 21%
    13:00 +28°C° 0 mm 1 mps 687 mmHg 21%
    14:00 +29°C° 0 mm 1 mps 687 mmHg 20%
    15:00 +29°C° 0 mm 1 mps 686 mmHg 19%
    16:00 +29°C° 0 mm 1 mps 686 mmHg 23%
    17:00 +29°C° 0 mm 1 mps 686 mmHg 26%
    18:00 +29°C° 0 mm 1 mps 686 mmHg 29%
    19:00 +26°C° 0 mm 1 mps 686 mmHg 33%
    20:00 +24°C° 0 mm 2 mps 686 mmHg 36%
    21:00 +21°C° 0 mm 3 mps 686 mmHg 40%
    22:00 +20°C° 0 mm 2 mps 686 mmHg 42%
    23:00 +19°C° 0 mm 2 mps 686 mmHg 45%

    1 June, Monday

    Time Temperature Precipitation Wind Pressure Humidity
    00:00 +18°C° 0 mm 2 mps 686 mmHg 47%
    01:00 +18°C° 0 mm 2 mps 685 mmHg 49%
    02:00 +17°C° 0 mm 2 mps 685 mmHg 50%
    03:00 +17°C° 0 mm 2 mps 685 mmHg 51%
    04:00 +17°C° 0 mm 2 mps 685 mmHg 52%
    05:00 +19°C° 0 mm 1 mps 685 mmHg 53%
    06:00 +20°C° 0 mm 1 mps 686 mmHg 54%
    07:00 +22°C° 0 mm 1 mps 686 mmHg 48%
    08:00 +23°C° 0 mm 1 mps 686 mmHg 43%
    09:00 +25°C° 0 mm 1 mps 686 mmHg 38%
    10:00 +26°C° 0 mm 2 mps 686 mmHg 35%
    11:00 +28°C° 0 mm 2 mps 686 mmHg 32%
    12:00 +29°C° 0 mm 2 mps 686 mmHg 29%
    13:00 +30°C° 0 mm 2 mps 686 mmHg 27%
    14:00 +30°C° 0 mm 2 mps 686 mmHg 25%
    15:00 +31°C° 0 mm 2 mps 685 mmHg 23%
    16:00 +31°C° 0 mm 3 mps 685 mmHg 25%
    17:00 +30°C° 0 mm 3 mps 685 mmHg 26%
    18:00 +29°C° 0 mm 4 mps 685 mmHg 28%
    19:00 +28°C° 0 mm 4 mps 685 mmHg 29%
    20:00 +26°C° 0 mm 3 mps 685 mmHg 30%
    21:00 +24°C° 0 mm 2 mps 685 mmHg 31%
    22:00 +23°C° 0 mm 2 mps 685 mmHg 33%
    23:00 +23°C° 0 mm 1 mps 684 mmHg 35%

    2 June, Tuesday

    Time Temperature Precipitation Wind Pressure Humidity
    00:00 +22°C° 0 mm 1 mps 684 mmHg 36%
    01:00 +21°C° 0 mm 1 mps 684 mmHg 38%
    02:00 +20°C° 0 mm 1 mps 683 mmHg 40%
    03:00 +19°C° 0 mm 1 mps 683 mmHg 41%
    04:00 +20°C° 0 mm 1 mps 683 mmHg 43%
    05:00 +21°C° 0 mm 1 mps 683 mmHg 44%
    06:00 +22°C° 0 mm 1 mps 683 mmHg 45%
    07:00 +24°C° 0 mm 1 mps 683 mmHg 39%
    08:00 +26°C° 0 mm 2 mps 683 mmHg 34%
    09:00 +28°C° 0 mm 2 mps 683 mmHg 28%
    10:00 +29°C° 0 mm 2 mps 683 mmHg 25%
    11:00 +31°C° 0 mm 2 mps 683 mmHg 23%
    12:00 +32°C° 0 mm 2 mps 683 mmHg 21%
    13:00 +34°C° 0 mm 4 mps 683 mmHg 20%
    14:00 +34°C° 0 mm 6 mps 683 mmHg 18%
    15:00 +35°C° 0 mm 8 mps 683 mmHg 17%
    16:00 +33°C° 0 mm 7 mps 682 mmHg 21%
    17:00 +32°C° 0 mm 7 mps 682 mmHg 24%
    18:00 +30°C° 0 mm 6 mps 682 mmHg 27%
    19:00 +28°C° 0 mm 6 mps 682 mmHg 27%
    20:00 +26°C° 0 mm 6 mps 683 mmHg 27%
    21:00 +23°C° 0 mm 6 mps 684 mmHg 27%
    22:00 +22°C° 0 mm 5 mps 684 mmHg 31%
    23:00 +21°C° 0 mm 4 mps 684 mmHg 35%
    Show more